N2IVN Weather Reports


time (UTC)temp
C
wind
direction
speed
KPH
gust
KPH
rain 1hr
cm
rain 24hr
cm
rain mn
cm
humidity
%
barometer
mb
20260506222006 22 233 6.4 12.9 0.00 0.00 0.00 75 1008.0
20260506221505 22 226 14.5 27.4 0.00 0.00 0.00 75 1007.8
20260506221005 22 223 11.3 22.5 0.00 0.00 0.00 75 1007.8
20260506220505 22 206 8.0 20.9 0.00 0.00 0.00 75 1007.9
20260506220005 22 211 11.3 22.5 0.00 0.00 0.00 75 1007.8
20260506215505 22 185 14.5 20.9 0.00 0.00 0.00 75 1007.9
20260506214505 22 225 16.1 22.5 0.00 0.00 0.00 75 1007.9
20260506214006 22 201 14.5 29.0 0.00 0.00 0.00 74 1007.9
20260506213005 22 203 4.8 12.9 0.00 0.00 0.00 74 1007.8
20260506212005 22 191 8.0 25.7 0.00 0.00 0.00 74 1007.7
20260506211505 22 214 11.3 19.3 0.00 0.00 0.00 74 1007.7
20260506211005 22 216 9.7 29.0 0.00 0.00 0.00 74 1007.7
20260506210505 22 192 16.1 27.4 0.00 0.00 0.00 73 1007.6
20260506210005 22 217 8.0 27.4 0.00 0.00 0.00 73 1007.6
20260506205006 22 228 14.5 25.7 0.00 0.00 0.00 73 1007.5
20260506204505 22 214 4.8 25.7 0.00 0.00 0.00 73 1007.4
20260506204005 22 228 9.7 24.1 0.00 0.00 0.00 73 1007.3
20260506203506 22 193 11.3 22.5 0.00 0.00 0.00 72 1007.4
20260506203005 23 214 9.7 25.7 0.00 0.00 0.00 72 1007.5
20260506202505 23 222 1.6 24.1 0.00 0.00 0.00 72 1007.4
20260506202005 23 206 3.2 12.9 0.00 0.00 0.00 72 1007.4
20260506201005 23 207 16.1 27.4 0.00 0.00 0.00 71 1007.5
20260506200505 23 220 12.9 32.2 0.00 0.00 0.00 72 1007.6
20260506200005 22 197 4.8 19.3 0.00 0.00 0.00 74 1007.6
20260506195505 22 234 9.7 24.1 0.00 0.00 0.00 73 1007.7
20260506195005 22 222 1.6 29.0 0.00 0.00 0.00 74 1007.8
20260506194505 22 207 19.3 27.4 0.00 0.00 0.00 74 1007.8
20260506193005 20 216 6.4 24.1 0.00 0.00 0.00 78 1008.2
20260506192505 20 209 14.5 29.0 0.00 0.00 0.00 78 1008.3
20260506192005 20 222 17.7 27.4 0.00 0.00 0.00 78 1008.6
20260506191505 20 222 8.0 25.7 0.00 0.00 0.00 78 1008.3
20260506191005 21 212 20.9 46.7 0.00 0.00 0.00 77 1008.4
20260506190505 21 232 14.5 46.7 0.00 0.00 0.00 78 1008.3
20260506190006 21 209 8.0 37.0 0.00 0.00 0.00 78 1008.2
20260506185505 21 232 19.3 25.7 0.00 0.00 0.00 79 1008.2
20260506185005 21 205 11.3 27.4 0.00 0.00 0.00 79 1008.2
20260506184505 20 225 16.1 32.2 0.00 0.00 0.00 80 1008.5
20260506184005 20 226 20.9 24.1 0.00 0.00 0.00 80 1008.5
20260506183505 20 208 19.3 40.2 0.00 0.00 0.00 80 1008.7
20260506183006 20 227 14.5 40.2 0.00 0.00 0.00 80 1008.8
20260506182505 20 204 19.3 40.2 0.00 0.00 0.00 79 1008.8
20260506182005 20 202 16.1 29.0 0.00 0.00 0.00 79 1008.8
20260506181504 21 208 20.9 40.2 0.00 0.00 0.00 79 1008.8
20260506180505 20 213 12.9 24.1 0.00 0.00 0.00 83 1008.7
20260506180005 19 220 8.0 24.1 0.00 0.00 0.00 84 1008.7
20260506175005 19 186 11.3 33.8 0.00 0.00 0.00 82 1008.8
20260506174504 20 213 17.7 32.2 0.00 0.00 0.00 82 1008.8
20260506174005 19 204 6.4 32.2 0.00 0.00 0.00 82 1008.8
20260506173505 19 187 11.3 29.0 0.00 0.00 0.00 83 1008.8
20260506173005 18 209 8.0 32.2 0.00 0.00 0.00 83 1008.8
20260506172504 18 228 14.5 22.5 0.00 0.00 0.00 83 1009.0
20260506171505 18 209 11.3 22.5 0.00 0.00 0.00 84 1009.2
20260506171005 18 239 11.3 22.5 0.00 0.00 0.00 83 1009.2
20260506170505 19 194 9.7 19.3 0.00 0.00 0.00 82 1009.2
20260506170005 19 237 8.0 33.8 0.00 0.00 0.00 81 1009.4
20260506165505 20 204 9.7 22.5 0.00 0.00 0.00 79 1009.5
20260506165005 20 225 6.4 37.0 0.00 0.00 0.00 76 1009.5
20260506164504 21 215 20.9 37.0 0.00 0.00 0.00 74 1009.3
20260506164004 22 197 14.5 22.5 0.00 0.00 0.00 71 1009.4
20260506163505 22 221 16.1 32.2 0.00 0.00 0.00 70 1009.4
20260506163005 22 204 11.3 27.4 0.00 0.00 0.00 69 1009.5
20260506162505 22 217 16.1 32.2 0.00 0.00 0.00 69 1010.0
20260506162004 22 214 16.1 27.4 0.00 0.00 0.00 68 1010.2
20260506161005 23 216 8.0 24.1 0.00 0.00 0.00 65 1010.1
20260506160505 23 208 14.5 27.4 0.00 0.00 0.00 63 1010.3
20260506160005 24 236 14.5 24.1 0.00 0.00 0.00 64 1010.4
20260506155004 23 194 9.7 20.9 0.00 0.00 0.00 67 1010.3
20260506154005 22 199 12.9 24.1 0.00 0.00 0.00 66 1010.2
20260506153505 22 208 8.0 22.5 0.00 0.00 0.00 66 1010.1
20260506153005 22 208 14.5 24.1 0.00 0.00 0.00 64 1010.2
20260506152505 23 215 14.5 20.9 0.00 0.00 0.00 63 1010.4
20260506152005 23 210 6.4 19.3 0.00 0.00 0.00 63 1010.2
20260506151505 23 215 16.1 27.4 0.00 0.00 0.00 62 1010.5
20260506151005 23 234 11.3 25.7 0.00 0.00 0.00 62 1010.4
20260506150005 23 200 16.1 29.0 0.00 0.00 0.00 63 1010.2
20260506145505 23 232 14.5 27.4 0.00 0.00 0.00 64 1010.2
20260506145005 22 227 14.5 29.0 0.00 0.00 0.00 65 1010.2
20260506144505 22 213 9.7 20.9 0.00 0.00 0.00 65 1010.4
20260506144004 22 227 16.1 27.4 0.00 0.00 0.00 66 1010.3
20260506143005 22 188 9.7 20.9 0.00 0.00 0.00 65 1010.5
20260506142504 22 225 11.3 32.2 0.00 0.00 0.00 65 1010.4
20260506142004 22 187 11.3 32.2 0.00 0.00 0.00 64 1010.5
20260506141504 22 204 12.9 24.1 0.00 0.00 0.00 64 1010.5
20260506141004 22 218 14.5 27.4 0.00 0.00 0.00 63 1010.6
20260506140504 23 221 14.5 38.6 0.00 0.00 0.00 62 1010.7
20260506140005 23 222 4.8 32.2 0.00 0.00 0.00 62 1010.4
20260506135505 23 233 9.7 25.7 0.00 0.00 0.00 64 1010.3
20260506135004 22 229 12.9 29.0 0.00 0.00 0.00 64 1010.2
20260506134505 22 224 14.5 37.0 0.00 0.00 0.00 64 1010.4
20260506134005 22 214 11.3 25.7 0.00 0.00 0.00 65 1010.4
20260506133506 21 222 8.0 22.5 0.00 0.00 0.00 67 1010.5
20260506133006 21 215 11.3 22.5 0.00 0.00 0.00 66 1010.5
20260506132504 21 192 8.0 24.1 0.00 0.00 0.00 65 1010.5
20260506132005 22 193 22.5 32.2 0.00 0.00 0.00 64 1010.6
20260506131504 22 223 14.5 32.2 0.00 0.00 0.00 64 1010.7
20260506130005 23 240 12.9 29.0 0.00 0.00 0.00 61 1010.8
20260506125505 23 212 16.1 24.1 0.00 0.00 0.00 60 1010.9
20260506125005 25 207 16.1 29.0 0.00 0.00 0.00 59 1010.8
20260506124005 25 210 14.5 32.2 0.00 0.00 0.00 60 1010.7
20260506123004 25 207 14.5 33.8 0.00 0.00 0.00 61 1010.8
20260506122505 23 200 16.1 29.0 0.00 0.00 0.00 65 1010.8
20260506122004 22 183 8.0 16.1 0.00 0.00 0.00 66 1010.8
20260506121505 22 229 14.5 32.2 0.00 0.00 0.00 64 1010.7
20260506121005 23 214 11.3 33.8 0.00 0.00 0.00 63 1010.8
20260506120505 23 197 14.5 27.4 0.00 0.00 0.00 64 1010.8
20260506120005 22 193 6.4 33.8 0.00 0.00 0.00 66 1010.7
20260506115509 22 195 11.3 33.8 0.00 0.00 0.00 64 1010.7
20260506115005 23 204 20.9 35.4 0.00 0.00 0.00 63 1010.7
20260506114005 22 222 17.7 32.2 0.00 0.00 0.00 66 1010.7
20260506113505 23 211 11.3 24.1 0.00 0.00 0.00 64 1010.7
20260506113005 23 193 12.9 25.7 0.00 0.00 0.00 64 1010.6
20260506112005 22 212 12.9 27.4 0.00 0.00 0.00 70 1010.7
20260506111005 19 221 9.7 22.5 0.00 0.00 0.00 81 1010.6
20260506110505 17 213 12.9 27.4 0.00 0.00 0.00 83 1010.7
20260506110004 16 210 14.5 29.0 0.00 0.00 0.00 83 1010.8
20260506105504 16 232 11.3 22.5 0.00 0.00 0.00 84 1010.7
20260506105005 16 194 11.3 33.8 0.00 0.00 0.00 84 1010.6
20260506104504 16 224 14.5 27.4 0.00 0.00 0.00 84 1010.6
20260506104005 16 214 8.0 27.4 0.00 0.00 0.00 85 1010.8
20260506103504 16 205 16.1 24.1 0.00 0.00 0.00 85 1010.7
20260506102504 16 182 4.8 19.3 0.00 0.00 0.00 86 1010.8
20260506102005 16 205 9.7 22.5 0.00 0.00 0.00 86 1010.6
20260506101504 16 183 6.4 14.5 0.00 0.00 0.00 86 1010.7
20260506101005 16 203 9.7 20.9 0.00 0.00 0.00 86 1010.7
20260506100504 16 180 6.4 19.3 0.00 0.00 0.00 86 1010.7
20260506100005 16 221 6.4 16.1 0.00 0.00 0.00 86 1010.7
20260506095505 16 176 4.8 16.1 0.00 0.00 0.00 85 1010.6
20260506095004 16 181 8.0 12.9 0.00 0.00 0.00 85 1010.7
20260506094504 16 203 8.0 20.9 0.00 0.00 0.00 85 1010.6
20260506094005 16 228 12.9 27.4 0.00 0.00 0.00 85 1010.5
20260506093505 16 206 16.1 24.1 0.00 0.00 0.00 85 1010.5
20260506093005 16 214 11.3 25.7 0.00 0.00 0.00 86 1010.5
20260506092504 16 210 11.3 22.5 0.00 0.00 0.00 86 1010.5
20260506092005 16 213 8.0 22.5 0.00 0.00 0.00 86 1010.5
20260506091504 16 210 9.7 25.7 0.00 0.00 0.00 86 1010.5
20260506091004 16 221 14.5 24.1 0.00 0.00 0.00 86 1010.6
20260506090505 16 218 11.3 16.1 0.00 0.00 0.00 86 1010.6
20260506090005 16 222 9.7 19.3 0.00 0.00 0.00 86 1010.8
20260506085505 16 195 4.8 16.1 0.00 0.00 0.00 86 1010.8
20260506085005 16 205 9.7 19.3 0.00 0.00 0.00 86 1010.8
20260506084504 16 202 9.7 19.3 0.00 0.00 0.00 86 1010.7
20260506084004 16 190 14.5 20.9 0.00 0.00 0.00 86 1011.0
20260506083504 16 206 16.1 32.2 0.00 0.00 0.00 86 1010.9
20260506082504 16 209 9.7 22.5 0.00 0.00 0.00 87 1011.1
20260506082004 16 211 3.2 16.1 0.00 0.00 0.00 87 1011.1
20260506081504 16 212 9.7 24.1 0.00 0.00 0.00 87 1011.1
20260506081005 16 202 4.8 14.5 0.00 0.00 0.00 87 1011.1
20260506073504 16 205 9.7 20.9 0.00 0.00 0.00 87 1010.9
20260506073005 16 198 9.7 16.1 0.00 0.00 0.00 86 1010.9
20260506072505 16 200 3.2 16.1 0.00 0.00 0.00 86 1011.0
20260506072004 16 213 4.8 19.3 0.00 0.00 0.00 86 1011.0
20260506071504 16 194 8.0 20.9 0.00 0.00 0.00 86 1011.0
20260506071004 16 202 11.3 19.3 0.00 0.00 0.00 86 1011.1
20260506070505 16 224 11.3 20.9 0.00 0.00 0.00 86 1011.1
20260506062004 17 203 9.7 25.7 0.00 0.00 0.00 85 1011.1
20260506061504 17 210 8.0 16.1 0.00 0.00 0.00 84 1011.0
20260506061004 17 214 14.5 33.8 0.00 0.00 0.00 84 1011.0
20260506060504 17 199 6.4 20.9 0.00 0.00 0.00 84 1011.1
20260506051004 18 222 8.0 22.5 0.00 0.00 0.00 82 1011.5
20260506044504 18 186 20.9 37.0 0.00 0.00 0.00 82 1011.7
20260506044004 18 228 9.7 24.1 0.00 0.00 0.00 82 1011.7
20260506043004 18 195 9.7 32.2 0.00 0.00 0.00 82 1011.7
20260506042504 18 182 9.7 29.0 0.00 0.00 0.00 81 1011.7
20260506042004 18 223 9.7 25.7 0.00 0.00 0.00 81 1011.7
20260506041504 18 202 16.1 33.8 0.00 0.00 0.00 81 1011.6
20260506041005 18 210 9.7 22.5 0.00 0.00 0.00 81 1011.6
20260506040504 18 210 9.7 20.9 0.00 0.00 0.00 81 1011.7
20260506035504 18 208 8.0 27.4 0.00 0.00 0.00 81 1011.6
20260506035005 18 210 9.7 22.5 0.00 0.00 0.00 80 1011.6
20260506034004 18 176 9.7 29.0 0.00 0.00 0.00 80 1011.6
20260506033505 18 168 14.5 20.9 0.00 0.00 0.00 80 1011.6
20260506033006 18 206 3.2 22.5 0.00 0.00 0.00 80 1011.6
20260506032503 18 183 12.9 22.5 0.00 0.00 0.00 80 1011.7
20260506032005 18 208 6.4 16.1 0.00 0.00 0.00 80 1011.6
20260506031504 18 190 8.0 19.3 0.00 0.00 0.00 79 1011.7
20260506031004 18 200 8.0 22.5 0.00 0.00 0.00 80 1011.7
20260506030504 18 196 9.7 20.9 0.00 0.00 0.00 79 1011.7
20260506030005 18 190 9.7 22.5 0.00 0.00 0.00 79 1011.7
20260506025504 18 203 9.7 20.9 0.00 0.00 0.00 79 1011.8
20260506025004 18 176 16.1 25.7 0.00 0.00 0.00 79 1011.7
20260506024504 18 214 12.9 19.3 0.00 0.00 0.00 79 1011.8
20260506024004 18 203 9.7 24.1 0.00 0.00 0.00 79 1011.7
20260506023504 18 187 11.3 20.9 0.00 0.00 0.00 79 1011.8
20260506023004 18 202 8.0 19.3 0.00 0.00 0.00 79 1011.8
20260506022504 18 221 12.9 24.1 0.00 0.00 0.00 79 1011.8
20260506021006 18 202 11.3 20.9 0.00 0.00 0.00 78 1011.7
20260506020504 18 218 11.3 25.7 0.00 0.00 0.00 77 1011.7
20260506020004 18 234 12.9 20.9 0.00 0.00 0.00 77 1011.7
20260506015005 18 207 9.7 16.1 0.00 0.00 0.00 76 1011.6
20260506014504 18 200 11.3 19.3 0.00 0.00 0.00 75 1011.6
20260506012504 19 220 6.4 16.1 0.00 0.00 0.00 73 1011.3
20260506012004 19 227 1.6 19.3 0.00 0.00 0.00 72 1011.2
20260506011504 19 195 9.7 24.1 0.00 0.00 0.00 72 1011.1
20260506011004 19 190 9.7 24.1 0.00 0.00 0.00 71 1011.0
20260506010504 19 222 8.0 22.5 0.00 0.00 0.00 71 1011.0
20260506010003 20 204 8.0 20.9 0.00 0.00 0.00 70 1011.0
20260506005504 20 190 11.3 25.7 0.00 0.00 0.00 70 1011.0
20260506004004 20 194 11.3 29.0 0.00 0.00 0.00 69 1010.8
20260506003504 20 205 16.1 25.7 0.00 0.00 0.00 69 1010.7
20260506003005 20 202 12.9 33.8 0.00 0.00 0.00 69 1010.6
20260506002504 20 189 12.9 32.2 0.00 0.00 0.00 69 1010.5
20260506002004 20 216 9.7 19.3 0.00 0.00 0.00 68 1010.6
20260506001532 20 191 11.3 22.5 0.00 0.00 0.00 68 1010.5
20260506001004 20 211 11.3 24.1 0.00 0.00 0.00 68 1010.5
20260506000506 20 198 9.7 20.9 0.00 0.00 0.00 68 1010.6
20260506000005 20 203 8.0 27.4 0.00 0.00 0.00 68 1010.6
20260505235505 20 206 11.3 25.7 0.00 0.00 0.00 67 1010.6
20260505234505 20 200 8.0 29.0 0.00 0.00 0.00 66 1010.5
20260505233505 21 195 8.0 19.3 0.00 0.00 0.00 66 1010.5
20260505233006 21 193 9.7 22.5 0.00 0.00 0.00 65 1010.5
20260505232505 21 212 4.8 24.1 0.00 0.00 0.00 65 1010.3
20260505232006 21 236 11.3 20.9 0.00 0.00 0.00 65 1010.6
20260505231506 21 240 11.3 20.9 0.00 0.00 0.00 64 1010.5
20260505231005 22 205 12.9 32.2 0.00 0.00 0.00 63 1010.5
20260505230005 22 175 8.0 16.1 0.00 0.00 0.00 61 1010.4
20260505225505 23 211 9.7 25.7 0.00 0.00 0.00 60 1010.3
20260505225005 23 212 16.1 25.7 0.00 0.00 0.00 60 1010.5
20260505224505 23 213 11.3 32.2 0.00 0.00 0.00 59 1010.3
20260505224005 23 189 14.5 20.9 0.00 0.00 0.00 59 1010.3
20260505223506 23 211 3.2 33.8 0.00 0.00 0.00 58 1010.5
20260505223005 23 211 14.5 25.7 0.00 0.00 0.00 58 1010.4
20260505222505 23 217 9.7 22.5 0.00 0.00 0.00 57 1010.4